Orbital Elements at Epoch 2459200.5 (2020-Dec-17.0) TDB
Reference: JPL 18 (heliocentric ecliptic J2000)
Element | Value | Uncertainty (1-sigma) | Units |
e | .1569698232074618 | 2.8981e-08 | |
a | 2.318625214075364 | 7.6306e-09 | au |
q | 1.954671024137591 | 6.8233e-08 | au |
i | 4.029289496133644 | 3.4055e-06 | deg |
node | 89.44449914394693 | 6.0565e-05 | deg |
peri | 356.6212233245515 | 6.2441e-05 | deg |
M | 70.15172996054372 | 1.5171e-05 | deg |
tp | 2458949.207143602919 (2020-Apr-09.70714360) | 5.4009e-05 | TDB |
period | 1289.568031377567 3.53 | 6.366e-06 1.743e-08 | d yr |
n | .2791632478787753 | 1.3781e-09 | deg/d |
Q | 2.682579404013138 | 8.8284e-09 | au |
|
| | Orbit Determination Parameters
Additional Information
|